When you browse on this site, cookies collect data to enhance your experience and personalize the content and advertising you see.
Visit our Privacy Policy to learn more. By continuing to use the site, you agree to this use of cookies and data.
  • In Germany
  • List of Countries
  • For 7 days
  • Water Temperature
  • Weather Map
  • Weather Widgets
  • user-avatar
    Login

    Hourly Weather Konstantyna

    Today, 15 October, Tuesday

    Time Temperature Precipitation Wind Pressure Humidity
    00:00 +22°C° 0 mm 4 mps 710 mmHg 62%
    01:00 +21°C° 0.2 mm 3 mps 710 mmHg 64%
    02:00 +21°C° 0.2 mm 2 mps 710 mmHg 67%
    03:00 +21°C° 0.2 mm 1 mps 710 mmHg 69%
    04:00 +21°C° 0.3 mm 1 mps 710 mmHg 71%
    05:00 +21°C° 0.3 mm 1 mps 710 mmHg 74%
    06:00 +20°C° 0.3 mm 1 mps 711 mmHg 76%
    07:00 +21°C° 0.2 mm 1 mps 711 mmHg 71%
    08:00 +22°C° 0.2 mm 1 mps 712 mmHg 66%
    09:00 +23°C° 0.2 mm 2 mps 712 mmHg 61%
    10:00 +23°C° 0.1 mm 2 mps 712 mmHg 60%
    11:00 +24°C° 0.1 mm 2 mps 712 mmHg 59%
    12:00 +24°C° 0.1 mm 2 mps 712 mmHg 58%
    13:00 +24°C° 0.2 mm 3 mps 712 mmHg 59%
    14:00 +22°C° 0.2 mm 3 mps 711 mmHg 59%
    15:00 +22°C° 0.2 mm 4 mps 711 mmHg 60%
    16:00 +21°C° 0.2 mm 3 mps 711 mmHg 65%
    17:00 +20°C° 0.2 mm 3 mps 712 mmHg 69%
    18:00 +19°C° 0.2 mm 3 mps 712 mmHg 74%
    19:00 +18°C° 0 mm 2 mps 712 mmHg 76%
    20:00 +18°C° 0 mm 2 mps 713 mmHg 79%
    21:00 +19°C° 0 mm 1 mps 713 mmHg 81%
    22:00 +18°C° 0 mm 1 mps 713 mmHg 82%
    23:00 +18°C° 0 mm 1 mps 713 mmHg 82%

    Tomorrow, 16 October, Wednesday

    Time Temperature Precipitation Wind Pressure Humidity
    00:00 +18°C° 0 mm 1 mps 713 mmHg 83%
    01:00 +16°C° 0 mm 0 mps 712 mmHg 83%
    02:00 +16°C° 0 mm 0 mps 712 mmHg 84%
    03:00 +15°C° 0 mm 0 mps 712 mmHg 84%
    04:00 +15°C° 0 mm 0 mps 712 mmHg 85%
    05:00 +15°C° 0 mm 0 mps 712 mmHg 87%
    06:00 +16°C° 0 mm 1 mps 712 mmHg 88%
    07:00 +16°C° 0 mm 0 mps 712 mmHg 82%
    08:00 +17°C° 0 mm 0 mps 713 mmHg 75%
    09:00 +19°C° 0 mm 0 mps 713 mmHg 68%
    10:00 +22°C° 0 mm 1 mps 713 mmHg 60%
    11:00 +23°C° 0 mm 2 mps 713 mmHg 52%
    12:00 +25°C° 0 mm 2 mps 713 mmHg 44%
    13:00 +25°C° 0 mm 2 mps 713 mmHg 43%
    14:00 +25°C° 0 mm 3 mps 712 mmHg 41%
    15:00 +25°C° 0 mm 3 mps 712 mmHg 40%
    16:00 +24°C° 0 mm 3 mps 712 mmHg 50%
    17:00 +21°C° 0 mm 2 mps 712 mmHg 61%
    18:00 +19°C° 0 mm 2 mps 711 mmHg 71%
    19:00 +19°C° 0 mm 1 mps 712 mmHg 75%
    20:00 +19°C° 0 mm 1 mps 712 mmHg 78%
    21:00 +18°C° 0 mm 1 mps 712 mmHg 81%
    22:00 +16°C° 0 mm 0 mps 712 mmHg 81%
    23:00 +16°C° 0 mm 0 mps 712 mmHg 81%

    Day after tomorrow, 17 October, Thursday

    Time Temperature Precipitation Wind Pressure Humidity
    00:00 +16°C° 0 mm 0 mps 712 mmHg 81%
    01:00 +18°C° 0 mm 1 mps 712 mmHg 80%
    02:00 +18°C° 0 mm 1 mps 711 mmHg 79%
    03:00 +18°C° 0 mm 1 mps 711 mmHg 78%
    04:00 +18°C° 0 mm 1 mps 711 mmHg 77%
    05:00 +18°C° 0 mm 1 mps 711 mmHg 77%
    06:00 +18°C° 0 mm 1 mps 711 mmHg 76%
    07:00 +20°C° 0 mm 1 mps 712 mmHg 68%
    08:00 +22°C° 0 mm 1 mps 712 mmHg 60%
    09:00 +24°C° 0 mm 1 mps 713 mmHg 52%
    10:00 +26°C° 0 mm 2 mps 713 mmHg 48%
    11:00 +27°C° 0 mm 3 mps 713 mmHg 44%
    12:00 +28°C° 0 mm 4 mps 713 mmHg 40%
    13:00 +28°C° 0 mm 3 mps 712 mmHg 41%
    14:00 +27°C° 0 mm 3 mps 712 mmHg 43%
    15:00 +27°C° 0 mm 3 mps 712 mmHg 44%
    16:00 +26°C° 0 mm 2 mps 712 mmHg 51%
    17:00 +24°C° 0 mm 2 mps 711 mmHg 58%
    18:00 +23°C° 0 mm 2 mps 711 mmHg 65%
    19:00 +22°C° 0.2 mm 1 mps 711 mmHg 69%
    20:00 +22°C° 0.2 mm 1 mps 712 mmHg 72%
    21:00 +19°C° 0.2 mm 0 mps 712 mmHg 75%
    22:00 +19°C° 0.1 mm 0 mps 712 mmHg 75%
    23:00 +19°C° 0.1 mm 0 mps 711 mmHg 75%

    18 October, Friday

    Time Temperature Precipitation Wind Pressure Humidity
    00:00 +19°C° 0.1 mm 0 mps 711 mmHg 75%
    01:00 +18°C° 0 mm 0 mps 711 mmHg 75%
    02:00 +18°C° 0 mm 0 mps 711 mmHg 75%
    03:00 +18°C° 0 mm 0 mps 711 mmHg 74%
    04:00 +18°C° 0 mm 0 mps 711 mmHg 75%
    05:00 +18°C° 0 mm 0 mps 711 mmHg 76%
    06:00 +17°C° 0 mm 0 mps 711 mmHg 77%
    07:00 +19°C° 0 mm 0 mps 711 mmHg 70%
    08:00 +23°C° 0 mm 1 mps 712 mmHg 63%
    09:00 +24°C° 0 mm 1 mps 712 mmHg 57%
    10:00 +25°C° 0 mm 1 mps 712 mmHg 53%
    11:00 +26°C° 0 mm 2 mps 712 mmHg 49%
    12:00 +27°C° 0 mm 2 mps 712 mmHg 45%
    13:00 +27°C° 0.1 mm 2 mps 712 mmHg 47%
    14:00 +27°C° 0.1 mm 3 mps 712 mmHg 48%
    15:00 +26°C° 0.1 mm 3 mps 711 mmHg 49%
    16:00 +25°C° 0.4 mm 3 mps 711 mmHg 58%
    17:00 +23°C° 0.4 mm 2 mps 711 mmHg 67%
    18:00 +21°C° 0.4 mm 2 mps 711 mmHg 76%
    19:00 +21°C° 0 mm 1 mps 711 mmHg 79%
    20:00 +21°C° 0 mm 1 mps 711 mmHg 82%
    21:00 +20°C° 0 mm 1 mps 711 mmHg 84%
    22:00 +20°C° 0 mm 1 mps 711 mmHg 84%
    23:00 +18°C° 0 mm 0 mps 711 mmHg 85%

    19 October, Saturday

    Time Temperature Precipitation Wind Pressure Humidity
    00:00 +18°C° 0 mm 0 mps 711 mmHg 85%
    01:00 +18°C° 0 mm 0 mps 710 mmHg 83%
    02:00 +18°C° 0 mm 0 mps 710 mmHg 82%
    03:00 +20°C° 0 mm 1 mps 710 mmHg 81%
    04:00 +19°C° 0 mm 1 mps 710 mmHg 80%
    05:00 +19°C° 0 mm 1 mps 710 mmHg 79%
    06:00 +19°C° 0 mm 1 mps 710 mmHg 78%
    07:00 +21°C° 0 mm 1 mps 710 mmHg 69%
    08:00 +23°C° 0 mm 1 mps 711 mmHg 59%
    09:00 +25°C° 0 mm 2 mps 711 mmHg 49%
    10:00 +27°C° 0 mm 2 mps 711 mmHg 43%
    11:00 +28°C° 0 mm 3 mps 711 mmHg 38%
    12:00 +29°C° 0 mm 3 mps 711 mmHg 32%
    13:00 +29°C° 0 mm 3 mps 710 mmHg 32%
    14:00 +29°C° 0 mm 3 mps 710 mmHg 33%
    15:00 +29°C° 0 mm 3 mps 710 mmHg 33%
    16:00 +28°C° 0 mm 3 mps 710 mmHg 37%
    17:00 +26°C° 0 mm 2 mps 710 mmHg 42%
    18:00 +25°C° 0 mm 2 mps 709 mmHg 46%
    19:00 +24°C° 0 mm 1 mps 710 mmHg 47%
    20:00 +24°C° 0 mm 1 mps 710 mmHg 48%
    21:00 +24°C° 0 mm 1 mps 710 mmHg 49%
    22:00 +23°C° 0 mm 1 mps 710 mmHg 49%
    23:00 +23°C° 0 mm 1 mps 710 mmHg 48%

    20 October, Sunday

    Time Temperature Precipitation Wind Pressure Humidity
    00:00 +23°C° 0 mm 1 mps 710 mmHg 48%
    01:00 +23°C° 0 mm 1 mps 709 mmHg 49%
    02:00 +23°C° 0 mm 2 mps 709 mmHg 50%
    03:00 +21°C° 0 mm 2 mps 709 mmHg 51%
    04:00 +21°C° 0 mm 2 mps 709 mmHg 52%
    05:00 +21°C° 0 mm 2 mps 709 mmHg 53%
    06:00 +20°C° 0 mm 2 mps 709 mmHg 54%
    07:00 +22°C° 0 mm 3 mps 709 mmHg 48%
    08:00 +25°C° 0 mm 4 mps 710 mmHg 42%
    09:00 +27°C° 0 mm 5 mps 710 mmHg 36%
    10:00 +29°C° 0 mm 6 mps 710 mmHg 32%
    11:00 +30°C° 0 mm 7 mps 710 mmHg 28%
    12:00 +32°C° 0 mm 8 mps 710 mmHg 24%
    13:00 +32°C° 0 mm 7 mps 710 mmHg 25%
    14:00 +30°C° 0 mm 7 mps 710 mmHg 27%
    15:00 +30°C° 0 mm 6 mps 709 mmHg 28%
    16:00 +28°C° 0 mm 5 mps 709 mmHg 33%
    17:00 +26°C° 0 mm 3 mps 709 mmHg 39%
    18:00 +25°C° 0 mm 2 mps 709 mmHg 44%
    19:00 +24°C° 0 mm 2 mps 709 mmHg 44%
    20:00 +24°C° 0 mm 2 mps 709 mmHg 44%
    21:00 +24°C° 0 mm 3 mps 710 mmHg 44%
    22:00 +23°C° 0 mm 2 mps 710 mmHg 51%
    23:00 +22°C° 0 mm 1 mps 709 mmHg 57%
    Show more